EW6316 Weather Reports


Display with metric or nautical units.
time (UTC)temp
F
wind
direction
speed
MPH
gust
MPH
rain 1hr
in
rain 24hr
in
rain mn
in
humidity
%
barometer
mb
20190217030103 16 356 4.0 6.0 0.00 0.00 0.00 91 1021.0
20190217025604 16 18 3.0 6.0 0.00 0.00 0.00 91 1021.0
20190217025104 16 348 4.0 7.0 0.00 0.00 0.00 91 1021.0
20190217024603 17 4 4.0 6.0 0.00 0.00 0.00 91 1021.0
20190217024104 17 22 3.0 5.0 0.00 0.00 0.00 91 1021.0
20190217023603 17 19 5.0 6.0 0.00 0.00 0.00 91 1021.0
20190217023104 17 21 3.0 6.0 0.00 0.00 0.00 91 1021.0
20190217022603 17 24 3.0 5.0 0.00 0.00 0.00 91 1021.0
20190217022104 17 6 3.0 6.0 0.00 0.00 0.00 91 1021.0
20190217021603 17 39 4.0 6.0 0.00 0.00 0.00 91 1021.0
20190217021103 17 20 3.0 6.0 0.00 0.00 0.00 91 1021.0
20190217020604 18 351 3.0 6.0 0.00 0.00 0.00 91 1021.0
20190217020104 18 14 3.0 5.0 0.00 0.00 0.00 91 1021.0
20190217015604 18 41 3.0 5.0 0.00 0.00 0.00 91 1021.0
20190217015104 18 31 3.0 6.0 0.00 0.00 0.00 91 1021.0
20190217014603 18 20 4.0 6.0 0.00 0.00 0.00 91 1021.0
20190217014103 18 25 3.0 6.0 0.00 0.00 0.00 91 1021.0
20190217013603 18 19 3.0 5.0 0.00 0.00 0.00 91 1021.0
20190217013103 18 29 3.0 6.0 0.00 0.00 0.00 91 1021.0
20190217012603 18 25 3.0 6.0 0.00 0.00 0.00 91 1021.0
20190217012103 17 19 4.0 6.0 0.00 0.00 0.00 91 1021.0
20190217011555 17 26 4.0 6.0 0.00 0.00 0.00 91 1021.0
20190217011054 17 41 5.0 7.0 0.00 0.00 0.00 91 1021.0
20190217010555 17 15 5.0 6.0 0.00 0.00 0.00 91 1021.0
20190217010054 18 31 5.0 6.0 0.00 0.00 0.00 91 1021.0
20190217005554 18 29 4.0 7.0 0.00 0.00 0.00 91 1021.0
20190217005055 18 32 5.0 7.0 0.00 0.00 0.00 93 1021.0
20190217004554 18 24 4.0 7.0 0.00 0.00 0.00 93 1021.0
20190217004055 18 20 3.0 6.0 0.00 0.00 0.00 93 1021.0
20190217003554 18 6 5.0 7.0 0.00 0.00 0.00 93 1021.0
20190217003054 18 20 3.0 6.0 0.00 0.00 0.00 93 1021.0
20190217002554 18 27 4.0 6.0 0.00 0.00 0.00 93 1021.0
20190217002054 18 31 4.0 6.0 0.00 0.00 0.00 91 1021.0
20190217001555 18 24 4.0 6.0 0.00 0.00 0.00 91 1021.0
20190217001054 18 24 6.0 7.0 0.00 0.00 0.00 91 1021.0
20190217000558 18 13 6.0 7.0 0.00 0.00 0.00 91 1021.0
20190217000055 18 355 5.0 7.0 0.00 0.00 0.00 88 1021.0
20190216235554 18 330 4.0 7.0 0.00 0.00 0.00 88 1021.0
20190216235054 18 334 5.0 7.0 0.00 0.00 0.00 88 1021.0
20190216234554 18 329 5.0 7.0 0.00 0.00 0.00 88 1021.0
20190216234055 18 338 6.0 7.0 0.00 0.00 0.00 88 1021.0
20190216233555 18 328 4.0 7.0 0.00 0.00 0.00 88 1021.0
20190216233054 18 348 5.0 7.0 0.00 0.00 0.00 88 1021.0
20190216232554 18 345 5.0 7.0 0.00 0.00 0.00 88 1021.0
20190216232055 18 354 5.0 7.0 0.00 0.00 0.00 88 1020.0
20190216231554 18 341 3.0 6.0 0.00 0.00 0.00 88 1020.0
20190216231054 18 328 3.0 3.0 0.00 0.00 0.00 88 1020.0
20190216230554 17 326 1.0 3.0 0.00 0.00 0.00 88 1020.0
20190216230054 17 339 3.0 5.0 0.00 0.00 0.00 88 1020.0
20190216225555 17 352 4.0 5.0 0.00 0.00 0.00 88 1020.0
20190216225054 17 349 5.0 6.0 0.00 0.00 0.00 88 1020.0
20190216224554 18 349 5.0 7.0 0.00 0.00 0.00 88 1020.0
20190216224055 18 1 4.0 7.0 0.00 0.00 0.00 88 1020.0
20190216223555 19 334 3.0 6.0 0.00 0.00 0.00 88 1020.0
20190216223055 19 24 4.0 6.0 0.00 0.00 0.00 88 1020.0
20190216222554 18 354 5.0 6.0 0.00 0.00 0.00 88 1020.0
20190216222054 18 3 5.0 7.0 0.00 0.00 0.00 88 1020.0
20190216221554 18 12 5.0 7.0 0.00 0.00 0.00 88 1020.0
20190216221055 18 348 5.0 7.0 0.00 0.00 0.00 88 1020.0
20190216220554 17 340 6.0 8.0 0.00 0.00 0.00 88 1020.0
20190216220054 17 356 6.0 7.0 0.00 0.00 0.00 88 1020.0
20190216215555 17 337 6.0 9.0 0.00 0.00 0.00 88 1020.0
20190216215054 18 1 5.0 6.0 0.00 0.00 0.00 88 1020.0
20190216214554 17 1 5.0 8.0 0.00 0.00 0.00 89 1020.0
20190216214054 17 352 6.0 8.0 0.00 0.00 0.00 88 1020.0
20190216213556 17 345 6.0 8.0 0.00 0.00 0.00 88 1020.0
20190216213055 18 350 5.0 8.0 0.00 0.00 0.00 88 1020.0
20190216212555 18 335 6.0 7.0 0.00 0.00 0.00 88 1020.0
20190216212055 18 348 6.0 8.0 0.00 0.00 0.00 88 1020.0
20190216211555 18 353 5.0 7.0 0.00 0.00 0.00 88 1020.0
20190216211055 18 340 5.0 7.0 0.00 0.00 0.00 88 1020.0
20190216210555 18 354 5.0 7.0 0.00 0.00 0.00 88 1019.0
20190216210055 18 356 6.0 7.0 0.00 0.00 0.00 88 1019.0
20190216205555 18 356 5.0 7.0 0.00 0.00 0.00 88 1019.0
20190216205055 19 344 5.0 7.0 0.00 0.00 0.00 88 1019.0
20190216204554 19 358 5.0 8.0 0.00 0.00 0.00 88 1019.0
20190216204054 19 352 6.0 8.0 0.00 0.00 0.00 88 1019.0
20190216203555 19 357 5.0 7.0 0.00 0.00 0.00 88 1019.0
20190216203055 18 9 6.0 9.0 0.00 0.00 0.00 88 1019.0
20190216202554 19 350 6.0 8.0 0.00 0.00 0.00 88 1019.0
20190216202055 19 349 6.0 8.0 0.00 0.00 0.00 88 1019.0
20190216201554 19 0 7.0 9.0 0.00 0.00 0.00 88 1019.0
20190216201055 19 353 5.0 8.0 0.00 0.00 0.00 88 1019.0
20190216200555 19 343 6.0 8.0 0.00 0.00 0.00 88 1019.0
20190216200059 19 2 6.0 7.0 0.00 0.00 0.00 88 1019.0
20190216195555 19 347 6.0 9.0 0.00 0.00 0.00 88 1019.0
20190216195055 19 343 7.0 8.0 0.00 0.00 0.00 88 1019.0
20190216194555 19 357 7.0 8.0 0.00 0.00 0.00 88 1019.0
20190216194055 19 353 7.0 9.0 0.00 0.00 0.00 87 1019.0
20190216193555 20 11 7.0 9.0 0.00 0.00 0.00 86 1018.0
20190216193055 20 355 7.0 10.0 0.00 0.00 0.00 86 1018.0
20190216192555 24 0 6.0 9.0 0.00 0.00 0.00 84 1018.0
20190216192056 29 341 7.0 9.0 0.00 0.00 0.00 86 1019.0
20190216191555 30 350 7.0 8.0 0.00 0.00 0.00 86 1019.0
20190216191055 29 322 7.0 10.0 0.00 0.00 0.00 86 1019.0
20190216190555 31 338 7.0 8.0 0.00 0.00 0.00 86 1019.0
20190216190055 30 354 6.0 9.0 0.00 0.00 0.00 86 1019.0
20190216185556 31 335 6.0 9.0 0.00 0.00 0.00 86 1019.0
20190216185055 31 352 7.0 8.0 0.00 0.00 0.00 86 1018.0
20190216184555 32 338 6.0 8.0 0.00 0.00 0.00 85 1018.0
20190216184055 32 326 5.0 7.0 0.00 0.00 0.00 85 1018.0
20190216183555 32 348 7.0 9.0 0.00 0.00 0.00 85 1018.0
20190216183055 33 344 7.0 8.0 0.00 0.00 0.00 85 1018.0
20190216182555 35 355 6.0 8.0 0.00 0.00 0.00 85 1018.0
20190216182055 35 357 6.0 8.0 0.00 0.00 0.00 84 1018.0
20190216181555 35 351 6.0 8.0 0.00 0.00 0.00 85 1018.0
20190216181055 36 356 6.0 7.0 0.00 0.00 0.00 84 1018.0
20190216180556 36 349 5.0 7.0 0.00 0.00 0.00 84 1018.0
20190216180056 37 332 6.0 7.0 0.00 0.00 0.00 84 1018.0
20190216175555 40 10 5.0 7.0 0.00 0.00 0.00 84 1018.0
20190216175055 38 349 5.0 7.0 0.00 0.00 0.00 84 1019.0
20190216174555 36 355 6.0 7.0 0.00 0.00 0.00 84 1019.0
20190216174056 32 348 6.0 8.0 0.00 0.00 0.00 85 1019.0
20190216173555 31 343 6.0 8.0 0.00 0.00 0.00 86 1019.0
20190216173055 25 353 6.0 7.0 0.00 0.00 0.00 87 1019.0
20190216172556 18 327 6.0 7.0 0.00 0.00 0.00 88 1019.0
20190216172056 17 333 7.0 8.0 0.00 0.00 0.00 88 1019.0
20190216171556 17 340 5.0 7.0 0.00 0.00 0.00 88 1019.0
20190216171055 17 333 7.0 9.0 0.00 0.00 0.00 89 1019.0
20190216170556 17 350 5.0 7.0 0.00 0.00 0.00 88 1019.0
20190216170056 16 331 6.0 10.0 0.00 0.00 0.00 89 1019.0
20190216165555 16 331 7.0 9.0 0.00 0.00 0.00 89 1019.0
20190216165056 17 329 6.0 8.0 0.00 0.00 0.00 89 1019.0
20190216164555 17 325 6.0 9.0 0.00 0.00 0.00 88 1019.0
20190216164056 17 335 5.0 7.0 0.00 0.00 0.00 89 1019.0
20190216163556 16 343 7.0 12.0 0.00 0.00 0.00 89 1019.0
20190216163055 17 337 6.0 9.0 0.00 0.00 0.00 89 1019.0
20190216162556 17 338 6.0 7.0 0.00 0.00 0.00 88 1019.0
20190216162056 17 347 5.0 8.0 0.00 0.00 0.00 88 1019.0
20190216161556 18 330 3.0 23.0 0.00 0.00 0.00 88 1030.0